Overview Statistics Trail Chart Weather Telemetry Raw packets
 

This is the latest recevied weather packets stored in our database for station/object N7WSS. If no packets are shown the sender has not sent any weather packets the latest 10 day(s).

<< 85 86 87 88 89 90 91 >>
Time Temp. Humidity Pressure Rain* Wind** Luminosity Snow
1788007681 25.56° C 54% 1014.3 hPa 0 mm - - -
1788007376 25.56° C 54% 1014.2 hPa 0 mm - - -
1788007071 25.56° C 55% 1014.1 hPa 0 mm - - -
1788006770 25.56° C 57% 1014.1 hPa 0 mm - - -
1788006469 25.56° C 57% 1014.1 hPa 0 mm - - -
1788006164 25.56° C 57% 1014 hPa 0 mm - - -
1788005863 26.67° C 52% 1014.1 hPa 0 mm - - -
1788005558 26.67° C 45% 1014.1 hPa 0 mm - - -
1788005257 26.67° C 45% 1013.9 hPa 0 mm - - -
1788004956 26.67° C 44% 1013.9 hPa 0 mm - - -
1788004656 26.67° C 44% 1013.9 hPa 0 mm - - -
1788004351 26.11° C 46% 1013.9 hPa 0 mm - - -
1788004050 25.56° C 48% 1013.9 hPa 0 mm - - -
1788003749 25.56° C 52% 1013.8 hPa 0 mm - - -
1788003445 25.56° C 53% 1013.8 hPa 0 mm - - -
1788003144 25.56° C 55% 1014 hPa 0 mm - - -
1788002838 25.56° C 56% 1013.8 hPa 0 mm - - -
1788002534 25.56° C 57% 1013.7 hPa 0 mm - - -
1788002230 25.56° C 57% 1013.7 hPa 0 mm - - -
1788001930 25.56° C 57% 1013.8 hPa 0 mm - - -
1788001625 25.56° C 59% 1013.7 hPa 0 mm - - -
1788001324 25.56° C 60% 1013.7 hPa 0 mm - - -
1788001019 25.56° C 59% 1013.6 hPa 0 mm - - -
1788000714 26.11° C 51% 1013.8 hPa 0 mm - - -
1788000410 26.11° C 49% 1013.7 hPa 0 mm - - -

* Rain latest hour (hover to see other rain measurements)
** Current wind speed in m/s (hover to see current wind gust speed)